Year,Month,Day,Hour,Minute,Value (Times are PST for temperature in C)
2014,07,14,00,00,18.40
2014,07,14,00,01,18.50
2014,07,14,00,02,18.60
2014,07,14,00,03,18.70
2014,07,14,00,04,18.90
2014,07,14,00,05,18.90
2014,07,14,00,06,19.00
2014,07,14,00,07,19.10
2014,07,14,00,08,19.10
2014,07,14,00,09,19.10
2014,07,14,00,10,19.20
2014,07,14,00,11,19.30
2014,07,14,00,12,19.30
2014,07,14,00,13,19.40
2014,07,14,00,14,19.40
2014,07,14,00,15,19.50
2014,07,14,00,16,19.50
2014,07,14,00,17,19.60
2014,07,14,00,18,19.60
2014,07,14,00,19,19.70
2014,07,14,00,20,19.70
2014,07,14,00,21,19.60
2014,07,14,00,22,19.50
2014,07,14,00,23,19.40
2014,07,14,00,24,19.20
2014,07,14,00,25,19.10
2014,07,14,00,26,19.00
2014,07,14,00,27,18.90
2014,07,14,00,28,18.80
2014,07,14,00,29,18.70
2014,07,14,00,30,18.60
2014,07,14,00,31,18.50
2014,07,14,00,32,18.50
2014,07,14,00,33,18.40
2014,07,14,00,34,18.30
2014,07,14,00,35,18.30
2014,07,14,00,36,18.40
2014,07,14,00,37,18.40
2014,07,14,00,38,18.50
2014,07,14,00,39,18.50
2014,07,14,00,40,18.60
2014,07,14,00,41,18.70
2014,07,14,00,42,18.70
2014,07,14,00,43,18.70
2014,07,14,00,44,18.70
2014,07,14,00,45,18.70
2014,07,14,00,46,18.60
2014,07,14,00,47,18.60
2014,07,14,00,48,18.60
2014,07,14,00,49,18.60
2014,07,14,00,50,18.60
2014,07,14,00,51,18.70
2014,07,14,00,52,18.70
2014,07,14,00,53,18.80
2014,07,14,00,54,18.90
2014,07,14,00,55,19.00
2014,07,14,00,56,19.10
2014,07,14,00,57,19.10
2014,07,14,00,58,19.20
2014,07,14,00,59,19.10
2014,07,14,01,00,19.10
2014,07,14,01,01,19.10
2014,07,14,01,02,19.00
2014,07,14,01,03,18.90
2014,07,14,01,04,18.90
2014,07,14,01,05,18.70
2014,07,14,01,06,18.60
2014,07,14,01,07,18.50
2014,07,14,01,08,18.50
2014,07,14,01,09,18.40
2014,07,14,01,10,18.30
2014,07,14,01,11,18.20
2014,07,14,01,12,18.10
2014,07,14,01,13,18.10
2014,07,14,01,14,18.10
2014,07,14,01,15,18.10
2014,07,14,01,16,18.10
2014,07,14,01,17,18.20
2014,07,14,01,18,18.20
2014,07,14,01,19,18.20
2014,07,14,01,20,18.30
2014,07,14,01,21,18.40
2014,07,14,01,22,18.40
2014,07,14,01,23,18.50
2014,07,14,01,24,18.60
2014,07,14,01,25,18.70
2014,07,14,01,26,18.70
2014,07,14,01,27,18.80
2014,07,14,01,28,18.80
2014,07,14,01,29,18.80
2014,07,14,01,30,18.80
2014,07,14,01,31,18.70
2014,07,14,01,32,18.70
2014,07,14,01,33,18.70
2014,07,14,01,34,18.60
2014,07,14,01,35,18.40
2014,07,14,01,36,18.20
2014,07,14,01,37,18.10
2014,07,14,01,38,17.90
2014,07,14,01,39,17.80
2014,07,14,01,40,17.70
2014,07,14,01,41,17.50
2014,07,14,01,42,17.30
2014,07,14,01,43,17.20
2014,07,14,01,44,17.00
2014,07,14,01,45,16.90
2014,07,14,01,46,16.80
2014,07,14,01,47,16.70
2014,07,14,01,48,16.50
2014,07,14,01,49,16.40
2014,07,14,01,50,16.20
2014,07,14,01,51,16.10
2014,07,14,01,52,16.10
2014,07,14,01,53,16.00
2014,07,14,01,54,15.90
2014,07,14,01,55,15.80
2014,07,14,01,56,15.80
2014,07,14,01,57,15.80
2014,07,14,01,58,15.70
2014,07,14,01,59,15.70
2014,07,14,02,00,15.70
2014,07,14,02,01,15.70
2014,07,14,02,02,15.70
2014,07,14,02,03,15.70
2014,07,14,02,04,15.60
2014,07,14,02,05,15.60
2014,07,14,02,06,15.60
2014,07,14,02,07,15.60
2014,07,14,02,08,15.60
2014,07,14,02,09,15.60
2014,07,14,02,10,15.50
2014,07,14,02,11,15.50
2014,07,14,02,12,15.50
2014,07,14,02,13,15.50
2014,07,14,02,14,15.50
2014,07,14,02,15,15.50
2014,07,14,02,16,15.50
2014,07,14,02,17,15.50
2014,07,14,02,18,15.50
2014,07,14,02,19,15.50
2014,07,14,02,20,15.50
2014,07,14,02,21,15.40
2014,07,14,02,22,15.40
2014,07,14,02,23,15.40
2014,07,14,02,24,15.40
2014,07,14,02,25,15.40
2014,07,14,02,26,15.40
2014,07,14,02,27,15.40
2014,07,14,02,28,15.30
2014,07,14,02,29,15.30
2014,07,14,02,30,15.30
2014,07,14,02,31,15.30
2014,07,14,02,32,15.30
2014,07,14,02,33,15.20
2014,07,14,02,34,15.20
2014,07,14,02,35,15.20
2014,07,14,02,36,15.10
2014,07,14,02,37,15.10
2014,07,14,02,38,15.10
2014,07,14,02,39,15.00
2014,07,14,02,40,15.00
2014,07,14,02,41,15.00
2014,07,14,02,42,14.90
2014,07,14,02,43,14.90
2014,07,14,02,44,14.90
2014,07,14,02,45,14.90
2014,07,14,02,46,14.80
2014,07,14,02,47,14.80
2014,07,14,02,48,14.80
2014,07,14,02,49,14.80
2014,07,14,02,50,14.80
2014,07,14,02,51,14.80
2014,07,14,02,52,14.80
2014,07,14,02,53,14.70
2014,07,14,02,54,14.70
2014,07,14,02,55,14.70
2014,07,14,02,56,14.70
2014,07,14,02,57,14.70
2014,07,14,02,58,14.60
2014,07,14,02,59,14.60
2014,07,14,03,00,14.60
2014,07,14,03,01,14.60
2014,07,14,03,02,14.60
2014,07,14,03,03,14.50
2014,07,14,03,04,14.50
2014,07,14,03,05,14.50
2014,07,14,03,06,14.50
2014,07,14,03,07,14.50
2014,07,14,03,08,14.40
2014,07,14,03,09,14.40
2014,07,14,03,10,14.40
2014,07,14,03,11,14.40
2014,07,14,03,12,14.40
2014,07,14,03,13,14.40
2014,07,14,03,14,14.30
2014,07,14,03,15,14.30
2014,07,14,03,16,14.30
2014,07,14,03,17,14.20
2014,07,14,03,18,14.20
2014,07,14,03,19,14.20
2014,07,14,03,20,14.20
2014,07,14,03,21,14.20
2014,07,14,03,22,14.20
2014,07,14,03,23,14.20
2014,07,14,03,24,14.10
2014,07,14,03,25,14.10
2014,07,14,03,26,14.10
2014,07,14,03,27,14.00
2014,07,14,03,28,14.00
2014,07,14,03,29,14.00
2014,07,14,03,30,14.00
2014,07,14,03,31,13.90
2014,07,14,03,32,13.90
2014,07,14,03,33,13.90
2014,07,14,03,34,13.90
2014,07,14,03,35,13.90
2014,07,14,03,36,13.90
2014,07,14,03,37,13.90
2014,07,14,03,38,13.80
2014,07,14,03,39,13.80
2014,07,14,03,40,13.80
2014,07,14,03,41,13.80
2014,07,14,03,42,13.80
2014,07,14,03,43,13.80
2014,07,14,03,44,13.80
2014,07,14,03,45,13.80
2014,07,14,03,46,13.80
2014,07,14,03,47,13.70
2014,07,14,03,48,13.70
2014,07,14,03,49,13.70
2014,07,14,03,50,13.70
2014,07,14,03,51,13.70
2014,07,14,03,52,13.70
2014,07,14,03,53,13.70
2014,07,14,03,54,13.70
2014,07,14,03,55,13.70
2014,07,14,03,56,13.70
2014,07,14,03,57,13.70
2014,07,14,03,58,13.70
2014,07,14,03,59,13.60
2014,07,14,04,00,13.60
2014,07,14,04,01,13.60
2014,07,14,04,02,13.60
2014,07,14,04,03,13.60
2014,07,14,04,04,13.60
2014,07,14,04,05,13.50
2014,07,14,04,06,13.50
2014,07,14,04,07,13.50
2014,07,14,04,08,13.50
2014,07,14,04,09,13.40
2014,07,14,04,10,13.40
2014,07,14,04,11,13.30
2014,07,14,04,12,13.30
2014,07,14,04,13,13.30
2014,07,14,04,14,13.30
2014,07,14,04,15,13.30
2014,07,14,04,16,13.20
2014,07,14,04,17,13.20
2014,07,14,04,18,13.20
2014,07,14,04,19,13.20
2014,07,14,04,20,13.20
2014,07,14,04,21,13.10
2014,07,14,04,22,13.10
2014,07,14,04,23,13.10
2014,07,14,04,24,13.10
2014,07,14,04,25,13.00
2014,07,14,04,26,13.00
2014,07,14,04,27,12.90
2014,07,14,04,28,12.90
2014,07,14,04,29,12.80
2014,07,14,04,30,12.80
2014,07,14,04,31,12.80
2014,07,14,04,32,12.80
2014,07,14,04,33,12.80
2014,07,14,04,34,12.80
2014,07,14,04,35,12.70
2014,07,14,04,36,12.70
2014,07,14,04,37,12.70
2014,07,14,04,38,12.70
2014,07,14,04,39,12.70
2014,07,14,04,40,12.60
2014,07,14,04,41,12.60
2014,07,14,04,42,12.60
2014,07,14,04,43,12.60
2014,07,14,04,44,12.60
2014,07,14,04,45,12.60
2014,07,14,04,46,12.60
2014,07,14,04,47,12.50
2014,07,14,04,48,12.50
2014,07,14,04,49,12.50
2014,07,14,04,50,12.50
2014,07,14,04,51,12.50
2014,07,14,04,52,12.50
2014,07,14,04,53,12.50
2014,07,14,04,54,12.50
2014,07,14,04,55,12.50
2014,07,14,04,56,12.50
2014,07,14,04,57,12.40
2014,07,14,04,58,12.40
2014,07,14,04,59,12.40
2014,07,14,05,00,12.40
2014,07,14,05,01,12.40
2014,07,14,05,02,12.40
2014,07,14,05,03,12.40
2014,07,14,05,04,12.40
2014,07,14,05,05,12.40
2014,07,14,05,06,12.40
2014,07,14,05,07,12.40
2014,07,14,05,08,12.40
2014,07,14,05,09,12.40
2014,07,14,05,10,12.30
2014,07,14,05,11,12.30
2014,07,14,05,12,12.30
2014,07,14,05,13,12.30
2014,07,14,05,14,12.30
2014,07,14,05,15,12.30
2014,07,14,05,16,12.30
2014,07,14,05,17,12.30
2014,07,14,05,18,12.30
2014,07,14,05,19,12.30
2014,07,14,05,20,12.30
2014,07,14,05,21,12.30
2014,07,14,05,22,12.30
2014,07,14,05,23,12.40
2014,07,14,05,24,12.40
2014,07,14,05,25,12.40
2014,07,14,05,26,12.40
2014,07,14,05,27,12.40
2014,07,14,05,28,12.40
2014,07,14,05,29,12.40
2014,07,14,05,30,12.40
2014,07,14,05,31,12.40
2014,07,14,05,32,12.40
2014,07,14,05,33,12.40
2014,07,14,05,34,12.40
2014,07,14,05,35,12.40
2014,07,14,05,36,12.40
2014,07,14,05,37,12.40
2014,07,14,05,38,12.50
2014,07,14,05,39,12.50
2014,07,14,05,40,12.50
2014,07,14,05,41,12.50
2014,07,14,05,42,12.50
2014,07,14,05,43,12.50
2014,07,14,05,44,12.60
2014,07,14,05,45,12.60
2014,07,14,05,46,12.60
2014,07,14,05,47,12.60
2014,07,14,05,48,12.70
2014,07,14,05,49,12.70
2014,07,14,05,50,12.80
2014,07,14,05,51,12.80
2014,07,14,05,52,12.80
2014,07,14,05,53,12.80
2014,07,14,05,54,12.80
2014,07,14,05,55,12.80
2014,07,14,05,56,12.80
2014,07,14,05,57,12.90
2014,07,14,05,58,12.90
2014,07,14,05,59,12.90
2014,07,14,06,00,12.90
2014,07,14,06,01,12.90
2014,07,14,06,02,12.90
2014,07,14,06,03,13.00
2014,07,14,06,04,13.00
2014,07,14,06,05,13.00
2014,07,14,06,06,13.00
2014,07,14,06,07,13.00
2014,07,14,06,08,13.00
2014,07,14,06,09,13.00
2014,07,14,06,10,13.00
2014,07,14,06,11,13.10
2014,07,14,06,12,13.10
2014,07,14,06,13,13.10
2014,07,14,06,14,13.10
2014,07,14,06,15,13.10
2014,07,14,06,16,13.10
2014,07,14,06,17,13.20
2014,07,14,06,18,13.20
2014,07,14,06,19,13.20
2014,07,14,06,20,13.20
2014,07,14,06,21,13.30
2014,07,14,06,22,13.30
2014,07,14,06,23,13.30
2014,07,14,06,24,13.30
2014,07,14,06,25,13.30
2014,07,14,06,26,13.40
2014,07,14,06,27,13.40
2014,07,14,06,28,13.40
2014,07,14,06,29,13.50
2014,07,14,06,30,13.50
2014,07,14,06,31,13.60
2014,07,14,06,32,13.60
2014,07,14,06,33,13.60
2014,07,14,06,34,13.70
2014,07,14,06,35,13.70
2014,07,14,06,36,13.80
2014,07,14,06,37,13.90
2014,07,14,06,38,13.90
2014,07,14,06,39,14.00
2014,07,14,06,40,14.10
2014,07,14,06,41,14.20
2014,07,14,06,42,14.20
2014,07,14,06,43,14.20
2014,07,14,06,44,14.30
2014,07,14,06,45,14.40
2014,07,14,06,46,14.40
2014,07,14,06,47,14.40
2014,07,14,06,48,14.50
2014,07,14,06,49,14.50
2014,07,14,06,50,14.60
2014,07,14,06,51,14.60
2014,07,14,06,52,14.70
2014,07,14,06,53,14.70
2014,07,14,06,54,14.80
2014,07,14,06,55,14.80
2014,07,14,06,56,14.80
2014,07,14,06,57,14.90
2014,07,14,06,58,15.00
2014,07,14,06,59,15.00
2014,07,14,07,00,15.10
2014,07,14,07,01,15.10
2014,07,14,07,02,15.20
2014,07,14,07,03,15.20
2014,07,14,07,04,15.30
2014,07,14,07,05,15.30
2014,07,14,07,06,15.30
2014,07,14,07,07,15.40
2014,07,14,07,08,15.40
2014,07,14,07,09,15.50
2014,07,14,07,10,15.50
2014,07,14,07,11,15.50
2014,07,14,07,12,15.60
2014,07,14,07,13,15.60
2014,07,14,07,14,15.60
2014,07,14,07,15,15.60
2014,07,14,07,16,15.60
2014,07,14,07,17,15.60
2014,07,14,07,18,15.70
2014,07,14,07,19,15.70
2014,07,14,07,20,15.70
2014,07,14,07,21,15.80
2014,07,14,07,22,15.80
2014,07,14,07,23,15.80
2014,07,14,07,24,15.80
2014,07,14,07,25,15.80
2014,07,14,07,26,15.80
2014,07,14,07,27,15.90
2014,07,14,07,28,15.90
2014,07,14,07,29,15.90
2014,07,14,07,30,16.10
2014,07,14,07,31,16.10
2014,07,14,07,32,16.10
2014,07,14,07,33,16.10
2014,07,14,07,34,16.10
2014,07,14,07,35,16.20
2014,07,14,07,36,16.20
2014,07,14,07,37,16.20
2014,07,14,07,38,16.20
2014,07,14,07,39,16.20
2014,07,14,07,40,16.20
2014,07,14,07,41,16.30
2014,07,14,07,42,16.30
2014,07,14,07,43,16.30
2014,07,14,07,44,16.30
2014,07,14,07,45,16.40
2014,07,14,07,46,16.40
2014,07,14,07,47,16.40
2014,07,14,07,48,16.40
2014,07,14,07,49,16.50
2014,07,14,07,50,16.60
2014,07,14,07,51,16.60
2014,07,14,07,52,16.70
2014,07,14,07,53,16.70
2014,07,14,07,54,16.70
2014,07,14,07,55,16.80
2014,07,14,07,56,16.80
2014,07,14,07,57,16.90
2014,07,14,07,58,16.90
2014,07,14,07,59,17.00
2014,07,14,08,00,17.00
2014,07,14,08,01,17.10
2014,07,14,08,02,17.10
2014,07,14,08,03,17.00
2014,07,14,08,04,17.00
2014,07,14,08,05,17.00
2014,07,14,08,06,16.90
2014,07,14,08,07,16.90
2014,07,14,08,08,16.80
2014,07,14,08,09,16.70
2014,07,14,08,10,16.70
2014,07,14,08,11,16.70
2014,07,14,08,12,16.60
2014,07,14,08,13,16.60
2014,07,14,08,14,16.50
2014,07,14,08,15,16.40
2014,07,14,08,16,16.40
2014,07,14,08,17,16.40
2014,07,14,08,18,16.30
2014,07,14,08,19,16.30
2014,07,14,08,20,16.30
2014,07,14,08,21,16.20
2014,07,14,08,22,16.20
2014,07,14,08,23,16.30
2014,07,14,08,24,16.30
2014,07,14,08,25,16.30
2014,07,14,08,26,16.30
2014,07,14,08,27,16.30
2014,07,14,08,28,16.30
2014,07,14,08,29,16.30
2014,07,14,08,30,16.30
2014,07,14,08,31,16.30
2014,07,14,08,32,16.40
2014,07,14,08,33,16.40
2014,07,14,08,34,16.40
2014,07,14,08,35,16.50
2014,07,14,08,36,16.60
2014,07,14,08,37,16.70
2014,07,14,08,38,16.70
2014,07,14,08,39,16.80
2014,07,14,08,40,16.90
2014,07,14,08,41,17.00
2014,07,14,08,42,17.10
2014,07,14,08,43,17.20
2014,07,14,08,44,17.30
2014,07,14,08,45,17.30
2014,07,14,08,46,17.40
2014,07,14,08,47,17.50
2014,07,14,08,48,17.60
2014,07,14,08,49,17.70
2014,07,14,08,50,17.70
2014,07,14,08,51,17.80
2014,07,14,08,52,17.90
2014,07,14,08,53,18.00
2014,07,14,08,54,18.10
2014,07,14,08,55,18.10
2014,07,14,08,56,18.20
2014,07,14,08,57,18.20
2014,07,14,08,58,18.30
2014,07,14,08,59,18.40
2014,07,14,09,00,18.40
2014,07,14,09,01,18.50
2014,07,14,09,02,18.60
2014,07,14,09,03,18.60
2014,07,14,09,04,18.70
2014,07,14,09,05,18.70
2014,07,14,09,06,18.80
2014,07,14,09,07,18.80
2014,07,14,09,08,18.80
2014,07,14,09,09,18.80
2014,07,14,09,10,18.80
2014,07,14,09,11,18.80
2014,07,14,09,12,18.80
2014,07,14,09,13,18.80
2014,07,14,09,14,18.80
2014,07,14,09,15,18.80
2014,07,14,09,16,18.80
2014,07,14,09,17,18.90
2014,07,14,09,18,18.90
2014,07,14,09,19,18.90
2014,07,14,09,20,18.90
2014,07,14,09,21,19.00
2014,07,14,09,22,19.10
2014,07,14,09,23,19.10
2014,07,14,09,24,19.10
2014,07,14,09,25,19.20
2014,07,14,09,26,19.30
2014,07,14,09,27,19.30
2014,07,14,09,28,19.40
2014,07,14,09,29,19.50
2014,07,14,09,30,19.60
2014,07,14,09,31,19.60
2014,07,14,09,32,19.70
2014,07,14,09,33,19.80
2014,07,14,09,34,19.90
2014,07,14,09,35,20.00
2014,07,14,09,36,20.10
2014,07,14,09,37,20.20
2014,07,14,09,38,20.30
2014,07,14,09,39,20.50
2014,07,14,09,40,20.60
2014,07,14,09,41,20.70
2014,07,14,09,42,20.80
2014,07,14,09,43,20.90
2014,07,14,09,44,21.00
2014,07,14,09,45,21.10
2014,07,14,09,46,21.20
2014,07,14,09,47,21.30
2014,07,14,09,48,21.40
2014,07,14,09,49,21.50
2014,07,14,09,50,21.60
2014,07,14,09,51,21.70
2014,07,14,09,52,21.80
2014,07,14,09,53,21.90
2014,07,14,09,54,22.00
2014,07,14,09,55,22.20
2014,07,14,09,56,22.30
2014,07,14,09,57,22.30
2014,07,14,09,58,22.40
2014,07,14,09,59,22.40
2014,07,14,10,00,22.50
2014,07,14,10,01,22.40
2014,07,14,10,02,22.30
2014,07,14,10,03,22.20
2014,07,14,10,04,22.00
2014,07,14,10,05,22.00
2014,07,14,10,06,22.00
2014,07,14,10,07,21.90
2014,07,14,10,08,21.90
2014,07,14,10,09,21.80
2014,07,14,10,10,21.70
2014,07,14,10,11,21.70
2014,07,14,10,12,21.70
2014,07,14,10,13,21.70
2014,07,14,10,14,21.60
2014,07,14,10,15,21.40
2014,07,14,10,16,21.20
2014,07,14,10,17,21.00
2014,07,14,10,18,20.80
2014,07,14,10,19,20.70
2014,07,14,10,20,20.70
2014,07,14,10,21,20.60
2014,07,14,10,22,20.60
2014,07,14,10,23,20.70
2014,07,14,10,24,20.70
2014,07,14,10,25,20.80
2014,07,14,10,26,20.90
2014,07,14,10,27,21.00
2014,07,14,10,28,21.10
2014,07,14,10,29,21.20
2014,07,14,10,30,21.40
2014,07,14,10,31,21.50
2014,07,14,10,32,21.60
2014,07,14,10,33,21.80
2014,07,14,10,34,21.90
2014,07,14,10,35,22.00
2014,07,14,10,36,22.00
2014,07,14,10,37,22.10
2014,07,14,10,38,22.20
2014,07,14,10,39,22.30
2014,07,14,10,40,22.40
2014,07,14,10,41,22.50
2014,07,14,10,42,22.60
2014,07,14,10,43,22.60
2014,07,14,10,44,22.70
2014,07,14,10,45,22.80
2014,07,14,10,46,22.90
2014,07,14,10,47,23.10
2014,07,14,10,48,23.20
2014,07,14,10,49,23.30
2014,07,14,10,50,23.40
2014,07,14,10,51,23.50
2014,07,14,10,52,23.60
2014,07,14,10,53,23.60
2014,07,14,10,54,23.70
2014,07,14,10,55,23.70
2014,07,14,10,56,23.80
2014,07,14,10,57,23.80
2014,07,14,10,58,23.80
2014,07,14,10,59,23.80
2014,07,14,11,00,23.80
2014,07,14,11,01,23.90
2014,07,14,11,02,23.90
2014,07,14,11,03,23.90
2014,07,14,11,04,23.90
2014,07,14,11,05,23.90
2014,07,14,11,06,23.90
2014,07,14,11,07,23.90
2014,07,14,11,08,24.00
2014,07,14,11,09,24.10
2014,07,14,11,10,24.10
2014,07,14,11,11,24.20
2014,07,14,11,12,24.30
2014,07,14,11,13,24.30
2014,07,14,11,14,24.30
2014,07,14,11,15,24.40
2014,07,14,11,16,24.40
2014,07,14,11,17,24.50
2014,07,14,11,18,24.50
2014,07,14,11,19,24.50
2014,07,14,11,20,24.50
2014,07,14,11,21,24.40
2014,07,14,11,22,24.40
2014,07,14,11,23,24.50
2014,07,14,11,24,24.50
2014,07,14,11,25,24.60
2014,07,14,11,26,24.60
2014,07,14,11,27,24.70
2014,07,14,11,28,24.70
2014,07,14,11,29,24.80
2014,07,14,11,30,24.80
2014,07,14,11,31,24.90
2014,07,14,11,32,24.90
2014,07,14,11,33,25.00
2014,07,14,11,34,25.00
2014,07,14,11,35,25.00
2014,07,14,11,36,25.00
2014,07,14,11,37,25.00
2014,07,14,11,38,25.00
2014,07,14,11,39,25.00
2014,07,14,11,40,25.00
2014,07,14,11,41,25.00
2014,07,14,11,42,25.00
2014,07,14,11,43,25.00
2014,07,14,11,44,24.90
2014,07,14,11,45,25.00
2014,07,14,11,46,25.00
2014,07,14,11,47,25.00
2014,07,14,11,48,25.10
2014,07,14,11,49,25.20
2014,07,14,11,50,25.20
2014,07,14,11,51,25.20
2014,07,14,11,52,25.20
2014,07,14,11,53,25.30
2014,07,14,11,54,25.40
2014,07,14,11,55,25.40
2014,07,14,11,56,25.30
2014,07,14,11,57,25.30
2014,07,14,11,58,25.30
2014,07,14,11,59,25.20
2014,07,14,12,00,25.20
2014,07,14,12,01,25.00
2014,07,14,12,02,24.90
2014,07,14,12,03,24.80
2014,07,14,12,04,24.70
2014,07,14,12,05,24.50
2014,07,14,12,06,24.30
2014,07,14,12,07,23.90
2014,07,14,12,08,23.70
2014,07,14,12,09,23.50
2014,07,14,12,10,23.40
2014,07,14,12,11,23.40
2014,07,14,12,12,23.30
2014,07,14,12,13,23.10
2014,07,14,12,14,23.00
2014,07,14,12,15,22.90
2014,07,14,12,16,22.90
2014,07,14,12,17,22.90
2014,07,14,12,18,22.90
2014,07,14,12,19,23.00
2014,07,14,12,20,23.10
2014,07,14,12,21,23.10
2014,07,14,12,22,23.10
2014,07,14,12,23,23.10
2014,07,14,12,24,23.30
2014,07,14,12,25,23.30
2014,07,14,12,26,23.40
2014,07,14,12,27,23.60
2014,07,14,12,28,23.70
2014,07,14,12,29,23.80
2014,07,14,12,30,23.90
2014,07,14,12,31,24.10
2014,07,14,12,32,24.20
2014,07,14,12,33,24.40
2014,07,14,12,34,24.50
2014,07,14,12,35,24.60
2014,07,14,12,36,24.50
2014,07,14,12,37,24.50
2014,07,14,12,38,24.40
2014,07,14,12,39,24.20
2014,07,14,12,40,24.10
2014,07,14,12,41,24.00
2014,07,14,12,42,23.80
2014,07,14,12,43,23.70
2014,07,14,12,44,23.60
2014,07,14,12,45,23.50
2014,07,14,12,46,23.40
2014,07,14,12,47,23.30
2014,07,14,12,48,23.20
2014,07,14,12,49,23.20
2014,07,14,12,50,23.10
2014,07,14,12,51,23.10
2014,07,14,12,52,23.10
2014,07,14,12,53,23.10
2014,07,14,12,54,23.20
2014,07,14,12,55,23.20
2014,07,14,12,56,23.30
2014,07,14,12,57,23.40
2014,07,14,12,58,23.50
2014,07,14,12,59,23.60
2014,07,14,13,00,23.70
2014,07,14,13,01,23.80
2014,07,14,13,02,23.90
2014,07,14,13,03,24.10
2014,07,14,13,04,24.20
2014,07,14,13,05,24.40
2014,07,14,13,06,24.50
2014,07,14,13,07,24.70
2014,07,14,13,08,24.90
2014,07,14,13,09,24.90
2014,07,14,13,10,25.10
2014,07,14,13,11,25.20
2014,07,14,13,12,25.20
2014,07,14,13,13,25.30
2014,07,14,13,14,25.30
2014,07,14,13,15,25.30
2014,07,14,13,16,25.40
2014,07,14,13,17,25.50
2014,07,14,13,18,25.50
2014,07,14,13,19,25.50
2014,07,14,13,20,25.60
2014,07,14,13,21,25.60
2014,07,14,13,22,25.60
2014,07,14,13,23,25.70
2014,07,14,13,24,25.80
2014,07,14,13,25,25.90
2014,07,14,13,26,26.00
2014,07,14,13,27,26.00
2014,07,14,13,28,26.10
2014,07,14,13,29,26.20
2014,07,14,13,30,26.30
2014,07,14,13,31,26.40
2014,07,14,13,32,26.50
2014,07,14,13,33,26.60
2014,07,14,13,34,26.60
2014,07,14,13,35,26.70
2014,07,14,13,36,26.70
2014,07,14,13,37,26.70
2014,07,14,13,38,26.70
2014,07,14,13,39,26.60
2014,07,14,13,40,26.60
2014,07,14,13,41,26.60
2014,07,14,13,42,26.60
2014,07,14,13,43,26.60
2014,07,14,13,44,26.60
2014,07,14,13,45,26.70
2014,07,14,13,46,26.80
2014,07,14,13,47,26.90
2014,07,14,13,48,27.00
2014,07,14,13,49,27.10
2014,07,14,13,50,27.10
2014,07,14,13,51,27.10
2014,07,14,13,52,27.00
2014,07,14,13,53,26.90
2014,07,14,13,54,26.80
2014,07,14,13,55,26.80
2014,07,14,13,56,26.80
2014,07,14,13,57,26.90
2014,07,14,13,58,26.90
2014,07,14,13,59,26.90
2014,07,14,14,00,26.90
2014,07,14,14,01,26.90
2014,07,14,14,02,27.00
2014,07,14,14,03,27.10
2014,07,14,14,04,27.10
2014,07,14,14,05,27.00
2014,07,14,14,06,26.90
2014,07,14,14,07,26.90
2014,07,14,14,08,26.80
2014,07,14,14,09,26.80
2014,07,14,14,10,26.80
2014,07,14,14,11,26.80
2014,07,14,14,12,26.80
2014,07,14,14,13,26.80
2014,07,14,14,14,26.80
2014,07,14,14,15,26.90
2014,07,14,14,16,27.00
2014,07,14,14,17,27.10
2014,07,14,14,18,27.10
2014,07,14,14,19,27.20
2014,07,14,14,20,27.30
2014,07,14,14,23,27.60
2014,07,14,14,24,27.70
2014,07,14,14,25,27.80
2014,07,14,14,26,27.90
2014,07,14,14,27,28.00
2014,07,14,14,28,28.10
2014,07,14,14,29,28.10
2014,07,14,14,30,28.10
2014,07,14,14,31,28.10
2014,07,14,14,32,28.10
2014,07,14,14,33,28.20
2014,07,14,14,34,28.20
2014,07,14,14,35,28.30
2014,07,14,14,36,28.30
2014,07,14,14,37,28.20
2014,07,14,14,38,28.20
2014,07,14,14,39,28.30
2014,07,14,14,40,28.30
2014,07,14,14,41,28.40
2014,07,14,14,42,28.40
2014,07,14,14,43,28.60
2014,07,14,14,44,28.60
2014,07,14,14,45,28.70
2014,07,14,14,46,28.70
2014,07,14,14,47,28.80
2014,07,14,14,48,28.80
2014,07,14,14,49,28.90
2014,07,14,14,50,28.90
2014,07,14,14,51,28.80
2014,07,14,14,52,28.80
2014,07,14,14,53,28.80
2014,07,14,14,54,28.80
2014,07,14,14,55,28.80
2014,07,14,14,56,28.90
2014,07,14,14,57,28.90
2014,07,14,14,58,29.00
2014,07,14,14,59,29.10
2014,07,14,15,00,29.00
2014,07,14,15,01,28.90
2014,07,14,15,02,29.00
2014,07,14,15,03,29.10
2014,07,14,15,04,29.00
2014,07,14,15,05,29.00
2014,07,14,15,06,29.10
2014,07,14,15,07,29.10
2014,07,14,15,08,29.10
2014,07,14,15,09,29.10
2014,07,14,15,10,29.20
2014,07,14,15,11,29.30
2014,07,14,15,12,29.30
2014,07,14,15,13,29.30
2014,07,14,15,14,29.30
2014,07,14,15,15,29.30
2014,07,14,15,16,29.10
2014,07,14,15,17,29.00
2014,07,14,15,18,28.90
2014,07,14,15,19,28.90
2014,07,14,15,20,28.90
2014,07,14,15,21,28.90
2014,07,14,15,22,28.90
2014,07,14,15,23,28.90
2014,07,14,15,24,28.90
2014,07,14,15,25,28.90
2014,07,14,15,26,28.90
2014,07,14,15,27,28.90
2014,07,14,15,28,28.90
2014,07,14,15,29,28.90
2014,07,14,15,30,29.00
2014,07,14,15,31,29.10
2014,07,14,15,32,29.10
2014,07,14,15,33,29.10
2014,07,14,15,34,29.00
2014,07,14,15,35,29.10
2014,07,14,15,36,29.00
2014,07,14,15,37,29.00
2014,07,14,15,38,29.00
2014,07,14,15,39,28.90
2014,07,14,15,40,28.90
2014,07,14,15,41,28.70
2014,07,14,15,42,28.60
2014,07,14,15,43,28.60
2014,07,14,15,44,28.50
2014,07,14,15,45,28.40
2014,07,14,15,46,28.30
2014,07,14,15,47,28.30
2014,07,14,15,48,28.30
2014,07,14,15,49,28.30
2014,07,14,15,50,28.30
2014,07,14,15,51,28.30
2014,07,14,15,52,28.30
2014,07,14,15,53,28.40
2014,07,14,15,54,28.30
2014,07,14,15,55,28.20
2014,07,14,15,56,28.20
2014,07,14,15,57,28.10
2014,07,14,15,58,28.00
2014,07,14,15,59,27.90
2014,07,14,16,00,27.90
2014,07,14,16,01,27.90
2014,07,14,16,02,27.90
2014,07,14,16,03,27.90
2014,07,14,16,04,27.90
2014,07,14,16,05,27.90
2014,07,14,16,06,28.00
2014,07,14,16,07,28.00
2014,07,14,16,08,28.00
2014,07,14,16,09,27.90
2014,07,14,16,10,27.70
2014,07,14,16,11,27.60
2014,07,14,16,12,27.40
2014,07,14,16,13,27.40
2014,07,14,16,14,27.40
2014,07,14,16,15,27.40
2014,07,14,16,16,27.50
2014,07,14,16,17,27.60
2014,07,14,16,18,27.60
2014,07,14,16,19,27.70
2014,07,14,16,20,27.70
2014,07,14,16,21,27.80
2014,07,14,16,22,27.80
2014,07,14,16,23,27.80
2014,07,14,16,24,27.70
2014,07,14,16,25,27.60
2014,07,14,16,26,27.60
2014,07,14,16,27,27.40
2014,07,14,16,28,27.40
2014,07,14,16,29,27.40
2014,07,14,16,30,27.40
2014,07,14,16,31,27.40
2014,07,14,16,32,27.40
2014,07,14,16,33,27.50
2014,07,14,16,34,27.60
2014,07,14,16,35,27.60
2014,07,14,16,36,27.60
2014,07,14,16,37,27.60
2014,07,14,16,38,27.50
2014,07,14,16,39,27.40
2014,07,14,16,40,27.40
2014,07,14,16,41,27.40
2014,07,14,16,42,27.40
2014,07,14,16,43,27.30
2014,07,14,16,44,27.30
2014,07,14,16,45,27.20
2014,07,14,16,46,27.20
2014,07,14,16,47,27.20
2014,07,14,16,48,27.30
2014,07,14,16,49,27.30
2014,07,14,16,50,27.30
2014,07,14,16,51,27.40
2014,07,14,16,52,27.50
2014,07,14,16,53,27.60
2014,07,14,16,54,27.70
2014,07,14,16,55,27.80
2014,07,14,16,56,27.90
2014,07,14,16,57,27.90
2014,07,14,16,58,27.90
2014,07,14,16,59,27.90
2014,07,14,17,00,27.80
2014,07,14,17,01,27.80
2014,07,14,17,02,27.80
2014,07,14,17,03,27.70
2014,07,14,17,04,27.70
2014,07,14,17,05,27.60
2014,07,14,17,06,27.50
2014,07,14,17,07,27.50
2014,07,14,17,08,27.50
2014,07,14,17,09,27.40
2014,07,14,17,10,27.40
2014,07,14,17,11,27.30
2014,07,14,17,12,27.30
2014,07,14,17,13,27.30
2014,07,14,17,14,27.30
2014,07,14,17,15,27.20
2014,07,14,17,16,27.20
2014,07,14,17,17,27.10
2014,07,14,17,18,27.10
2014,07,14,17,19,27.10
2014,07,14,17,20,27.00
2014,07,14,17,21,26.90